Location: Heisede
(52.2582°N, 9.8523°E)
Time: 21:21:58
(UTC+00:00)

Cosmos 44 - Pass Details

Date: 13 January 2026
Orbit: 570 x 780 km, 65.1° (Epoch: 16 February)

Event Time Altitude Azimuth Distance (km) Brightness Sun altitude
Exits shadow 04:32:03 33° 353° (N) 1,259 4.5 -25.5°
Maximum altitude 04:33:41 43° 35° (NE) 1,077 4.4 -25.2°
Drops below altitude 10° 04:38:48 10° 107° (ESE) 2,332 7.0 -24.4°
Sets 04:41:21 0° 114° (ESE) 3,259 7.9 -24.1°
